GW3762 Weather Reports


Display with metric or nautical units.
time (UTC)temp
F
wind
direction
speed
MPH
gust
MPH
rain 1hr
in
rain 24hr
in
rain mn
in
humidity
%
barometer
mb
20260502170458 53 241 2.0 6.0 0.00 0.05 0.05 82 1011.6
20260502163957 51 221 0.0 1.0 0.00 0.05 0.05 84 1011.5
20260502163458 51 221 0.0 1.0 0.00 0.05 0.05 84 1011.6
20260502162958 51 238 0.0 1.0 0.00 0.05 0.05 84 1011.5
20260502162458 51 244 0.0 1.0 0.00 0.05 0.05 85 1011.6
20260502161958 51 244 0.0 3.0 0.00 0.05 0.05 85 1011.7
20260502161458 51 244 0.0 4.0 0.00 0.05 0.05 85 1011.7
20260502160957 50 244 2.0 4.0 0.00 0.05 0.05 85 1011.8
20260502151458 52 250 2.0 4.0 0.00 0.05 0.05 84 1011.9
20260502150957 51 234 2.0 6.0 0.00 0.05 0.05 83 1012.1
20260502150458 52 258 4.0 6.0 0.00 0.05 0.05 83 1012.1
20260502123458 49 296 0.0 2.0 0.01 0.05 0.05 91 1012.2
20260502122457 48 298 0.0 2.0 0.01 0.05 0.05 93 1012.1
20260502121456 48 298 2.0 2.0 0.03 0.05 0.05 94 1012.2
20260502120505 47 288 0.0 3.0 0.04 0.05 0.05 93 1012.4
20260502115500 46 290 1.0 3.0 0.05 0.05 0.05 93 1012.0
20260502115002 46 290 2.0 3.0 0.05 0.05 0.05 93 1011.9
20260502113957 45 76 0.0 3.0 0.04 0.04 0.04 93 1011.9
20260502113456 45 76 0.0 3.0 0.04 0.04 0.04 93 1011.9
20260502112957 45 71 2.0 6.0 0.04 0.04 0.04 93 1012.0
20260502112456 45 267 1.0 6.0 0.04 0.04 0.04 93 1012.1
20260502111957 45 84 1.0 2.0 0.03 0.03 0.03 93 1012.6
20260502111456 45 257 0.0 2.0 0.02 0.02 0.02 93 1012.8
20260502110957 46 255 0.0 3.0 0.02 0.02 0.02 93 1012.8
20260502110456 46 255 0.0 3.0 0.01 0.01 0.01 93 1012.7
20260502105957 45 76 0.0 3.0 0.00 0.00 0.00 93 1012.5
20260502105456 46 267 0.0 0.0 0.00 0.00 0.00 93 1012.6
20260502104957 46 267 0.0 0.0 0.00 0.00 0.00 93 1012.6
20260502104456 46 267 0.0 2.0 0.00 0.00 0.00 93 1012.7
20260502103956 46 267 0.0 2.0 0.00 0.00 0.00 93 1012.5
20260502102957 45 267 0.0 2.0 0.00 0.00 0.00 93 1012.2
20260502102457 45 267 0.0 1.0 0.00 0.00 0.00 93 1012.1
20260502101956 45 267 0.0 1.0 0.00 0.00 0.00 93 1012.2
20260502101457 45 267 1.0 1.0 0.00 0.00 0.00 93 1012.2
20260502100956 45 267 0.0 1.0 0.00 0.00 0.00 93 1012.0
20260502100456 45 267 0.0 1.0 0.00 0.00 0.00 93 1011.8
20260502091456 45 267 0.0 1.0 0.00 0.00 0.00 92 1011.7
20260502090956 45 267 0.0 1.0 0.00 0.00 0.00 92 1011.5
20260502090456 45 267 0.0 1.0 0.00 0.00 0.00 91 1011.4
20260502071457 46 194 0.0 3.0 0.00 0.00 0.00 89 1011.9
20260502070957 46 194 2.0 3.0 0.00 0.00 0.00 89 1011.8
20260502070458 46 190 1.0 2.0 0.00 0.00 0.00 89 1011.8
20260502065956 46 190 0.0 1.0 0.00 0.00 0.00 89 1011.8
20260502065457 46 190 0.0 2.0 0.00 0.00 0.00 89 1011.6
20260502064956 46 190 0.0 3.0 0.00 0.00 0.00 88 1011.8
20260502064456 46 190 2.0 3.0 0.00 0.00 0.00 88 1011.9
20260502063956 46 190 1.0 3.0 0.00 0.00 0.00 88 1011.8
20260502062456 46 190 2.0 2.0 0.00 0.00 0.00 88 1011.8
20260502061957 46 171 1.0 2.0 0.00 0.00 0.00 88 1011.8
20260502061456 46 171 0.0 2.0 0.00 0.00 0.00 88 1011.8
20260502060956 46 171 1.0 2.0 0.00 0.00 0.00 88 1011.8
20260502060456 46 171 0.0 1.0 0.00 0.00 0.00 87 1011.8
20260502055957 46 171 1.0 1.0 0.00 0.00 0.00 87 1011.8
20260502055456 47 171 0.0 2.0 0.00 0.00 0.00 87 1011.9
20260502054956 47 171 1.0 2.0 0.00 0.00 0.00 86 1012.0
20260502054456 47 166 0.0 2.0 0.00 0.00 0.00 86 1012.0
20260502053956 47 166 1.0 2.0 0.00 0.00 0.00 86 1012.0
20260502052456 47 166 0.0 2.0 0.00 0.00 0.00 84 1012.1
20260502051956 47 166 0.0 2.0 0.00 0.00 0.00 84 1012.1
20260502051457 47 166 1.0 2.0 0.00 0.00 0.00 84 1012.2
20260502050456 47 166 0.0 1.0 0.00 0.00 0.00 83 1012.4
20260502045959 47 166 0.0 1.0 0.00 0.00 0.00 83 1012.2
20260502045458 47 166 0.0 1.0 0.00 0.00 0.00 83 1012.2
20260502044458 47 166 0.0 1.0 0.00 0.00 0.00 82 1012.3
20260502043958 47 166 0.0 1.0 0.00 0.00 0.00 82 1012.3
20260502043458 47 166 0.0 1.0 0.00 0.00 0.00 82 1012.4
20260502042958 47 166 0.0 1.0 0.00 0.00 0.00 82 1012.3
20260502042459 48 166 0.0 1.0 0.00 0.00 0.00 81 1012.3
20260502041958 48 166 0.0 1.0 0.00 0.00 0.00 81 1012.2
20260502041458 48 166 0.0 1.0 0.00 0.00 0.00 80 1012.3
20260502040959 48 166 0.0 1.0 0.00 0.00 0.00 80 1012.3
20260502035958 48 244 0.0 1.0 0.00 0.00 0.00 79 1012.3
20260502034957 48 244 1.0 1.0 0.00 0.00 0.00 79 1012.2
20260502034458 49 244 0.0 2.0 0.00 0.00 0.00 78 1012.2
20260502033958 49 244 0.0 2.0 0.00 0.00 0.00 78 1012.4
20260502033458 49 244 0.0 2.0 0.00 0.00 0.00 78 1012.5
20260502032459 49 244 1.0 2.0 0.00 0.00 0.00 78 1012.4
20260502031958 49 244 2.0 2.0 0.00 0.00 0.00 78 1012.4
20260502031458 49 244 1.0 2.0 0.00 0.00 0.00 78 1012.5
20260502030958 49 244 0.0 0.0 0.00 0.00 0.00 77 1012.4
20260502030459 49 244 0.0 0.0 0.00 0.00 0.00 78 1012.5
20260502030001 49 244 0.0 0.0 0.00 0.00 0.00 77 1012.5
20260502025500 49 244 0.0 0.0 0.00 0.00 0.00 76 1012.5
20260502024500 50 244 0.0 0.0 0.00 0.00 0.00 75 1012.4
20260502024000 50 244 0.0 2.0 0.00 0.00 0.00 76 1012.4
20260502023459 50 244 1.0 2.0 0.00 0.00 0.00 75 1012.5
20260502022959 50 244 0.0 3.0 0.00 0.00 0.00 74 1012.5
20260502021959 50 235 2.0 3.0 0.00 0.00 0.00 74 1012.6
20260502021459 50 234 0.0 3.0 0.00 0.00 0.00 73 1012.6
20260502021000 50 257 2.0 4.0 0.00 0.00 0.00 74 1012.6
20260502020459 50 258 3.0 5.0 0.00 0.00 0.00 74 1012.6
20260502015958 50 255 2.0 5.0 0.00 0.00 0.00 73 1012.6
20260502015458 50 235 2.0 4.0 0.00 0.00 0.00 74 1012.5
20260502014958 50 254 1.0 4.0 0.00 0.00 0.00 74 1012.5
20260502014459 50 246 2.0 6.0 0.00 0.00 0.00 73 1012.5
20260502013501 50 258 2.0 6.0 0.00 0.00 0.00 73 1012.5
20260502012959 50 252 3.0 6.0 0.00 0.00 0.00 73 1012.5
20260502012458 51 252 3.0 4.0 0.00 0.00 0.00 73 1012.5
20260502011958 51 239 2.0 6.0 0.00 0.00 0.00 73 1012.5
20260502011457 51 235 2.0 7.0 0.00 0.00 0.00 72 1012.4
20260502010958 51 231 3.0 7.0 0.00 0.00 0.00 72 1012.4
20260502010458 51 248 4.0 7.0 0.00 0.00 0.00 72 1012.4
20260502010000 51 247 2.0 7.0 0.00 0.00 0.00 72 1012.4
20260502005459 51 264 4.0 6.0 0.00 0.00 0.00 72 1012.4
20260502004959 51 259 3.0 6.0 0.00 0.00 0.00 71 1012.2
20260502004500 51 247 3.0 6.0 0.00 0.00 0.00 71 1012.1
20260502004000 51 258 3.0 10.0 0.00 0.00 0.00 71 1012.1
20260502003000 51 241 5.0 7.0 0.00 0.00 0.00 70 1011.9
20260502002459 51 243 3.0 7.0 0.00 0.00 0.00 70 1011.9
20260502002000 51 248 3.0 6.0 0.00 0.00 0.00 70 1011.7
20260502001459 51 248 3.0 5.0 0.00 0.00 0.00 70 1011.6
20260502000500 51 237 3.0 5.0 0.00 0.00 0.00 68 1011.4
20260502000000 52 233 3.0 6.0 0.00 0.00 0.00 68 1011.4
20260501235458 52 240 3.0 6.0 0.00 0.00 0.00 68 1011.3
20260501234958 52 227 6.0 7.0 0.00 0.00 0.00 67 1011.3
20260501234458 53 234 4.0 8.0 0.00 0.00 0.00 66 1011.2
20260501233958 53 238 6.0 8.0 0.00 0.00 0.00 65 1011.1
20260501233001 54 223 4.0 8.0 0.00 0.00 0.00 63 1010.9
20260501232458 54 233 4.0 7.0 0.00 0.00 0.00 61 1010.8
20260501231959 54 236 3.0 7.0 0.00 0.00 0.00 60 1010.7
20260501230958 55 221 3.0 9.0 0.00 0.00 0.00 54 1010.5
20260501225958 55 234 2.0 4.0 0.00 0.01 0.00 52 1010.5
20260501225458 55 236 0.0 3.0 0.00 0.01 0.00 51 1010.4
20260501224958 55 236 0.0 4.0 0.00 0.01 0.00 52 1010.4
20260501224459 55 236 1.0 3.0 0.00 0.01 0.00 52 1010.5
20260501223958 56 236 1.0 3.0 0.00 0.01 0.00 50 1010.5
20260501223457 56 229 0.0 4.0 0.00 0.01 0.00 50 1010.5
20260501222957 56 246 1.0 4.0 0.00 0.01 0.00 48 1010.5
20260501222458 57 182 1.0 3.0 0.00 0.01 0.00 47 1010.5
20260501221958 57 188 0.0 4.0 0.00 0.01 0.00 47 1010.4
20260501221458 57 253 4.0 5.0 0.00 0.01 0.00 49 1010.3
20260501221000 57 196 2.0 5.0 0.00 0.01 0.00 47 1010.3
20260501220458 56 207 2.0 4.0 0.00 0.01 0.00 47 1010.3
20260501214958 57 242 1.0 6.0 0.00 0.03 0.00 48 1010.5
20260501214458 57 257 3.0 6.0 0.00 0.03 0.00 49 1010.3
20260501213958 58 155 2.0 4.0 0.00 0.03 0.00 45 1010.2
20260501213458 58 231 0.0 5.0 0.00 0.03 0.00 46 1010.3
20260501212958 58 167 4.0 5.0 0.00 0.03 0.00 47 1010.3
20260501212458 58 225 1.0 6.0 0.00 0.03 0.00 47 1010.3
20260501211958 59 218 5.0 6.0 0.00 0.03 0.00 48 1010.2
20260501211458 59 217 0.0 7.0 0.00 0.03 0.00 46 1010.3
20260501210958 60 235 4.0 9.0 0.00 0.03 0.00 47 1010.2
20260501210458 60 248 8.0 9.0 0.00 0.03 0.00 47 1010.2
20260501210000 60 170 1.0 5.0 0.00 0.03 0.00 44 1010.2
20260501205458 60 237 2.0 5.0 0.00 0.03 0.00 43 1010.2
20260501204958 60 232 2.0 6.0 0.00 0.03 0.00 42 1010.2
20260501203458 62 124 1.0 8.0 0.00 0.03 0.00 38 1010.2
20260501202958 62 252 3.0 8.0 0.00 0.03 0.00 43 1010.1
20260501201958 61 296 0.0 7.0 0.00 0.03 0.00 42 1010.1
20260501201458 62 240 4.0 8.0 0.00 0.03 0.00 42 1010.1
20260501200958 63 221 4.0 9.0 0.00 0.03 0.00 44 1010.3
20260501195958 63 246 5.0 7.0 0.00 0.03 0.00 40 1010.2
20260501195458 63 252 4.0 7.0 0.00 0.03 0.00 44 1010.3
20260501194958 63 252 0.0 5.0 0.00 0.03 0.00 46 1010.3
20260501194458 63 237 4.0 7.0 0.00 0.03 0.00 45 1010.4
20260501193959 63 229 3.0 7.0 0.00 0.03 0.00 44 1010.5
20260501193458 63 228 3.0 11.0 0.00 0.03 0.00 42 1010.6
20260501192958 62 248 4.0 11.0 0.00 0.03 0.00 45 1010.6
20260501191458 62 53 2.0 6.0 0.00 0.03 0.00 38 1010.8
20260501190958 63 291 4.0 5.0 0.00 0.03 0.00 41 1010.7
20260501190458 62 248 2.0 7.0 0.00 0.03 0.00 47 1010.7
20260501185957 63 281 0.0 7.0 0.00 0.03 0.00 40 1010.9
20260501185458 63 234 3.0 8.0 0.00 0.03 0.00 43 1010.9
20260501184957 63 251 3.0 8.0 0.00 0.03 0.00 45 1010.9
20260501184457 62 257 4.0 9.0 0.00 0.03 0.00 42 1011.0
20260501183957 62 211 3.0 10.0 0.00 0.03 0.00 44 1011.1
20260501183456 62 253 4.0 12.0 0.00 0.03 0.00 43 1011.2
20260501182957 62 255 0.0 12.0 0.00 0.03 0.00 45 1011.2
20260501182457 62 285 6.0 9.0 0.00 0.03 0.00 47 1011.2
20260501181957 61 252 3.0 9.0 0.00 0.03 0.00 46 1011.2
20260501181457 59 65 1.0 7.0 0.00 0.03 0.00 46 1011.3
20260501180456 62 316 3.0 7.0 0.00 0.03 0.00 44 1011.3
20260501175957 62 301 3.0 7.0 0.00 0.03 0.00 45 1011.3